Location: Kott?ru
(16.6209°N, 80.6208°E)
Time: 08:12:41
(UTC+00:00)

AAUSAT CUBESAT 2 - Visible Passes

Search period start: 09 June 2023 00:00
Search period end: 19 June 2023 00:00
Orbit: 549 x 561 km, 97.6° (Epoch: 08 June)

Date Brightness Start Highest point End Pass type
(mag) Time Alt. Az. Time Alt. Az. Time Alt. Az.
09 Jun ? 22:13:33 10° NE 22:16:42 22° E 22:19:50 10° SSE visible
10 Jun ? 22:11:02 10° NE 22:14:02 20° E 22:17:02 10° SSE visible
11 Jun ? 22:08:30 10° NE 22:11:20 19° E 22:14:11 10° SE visible
12 Jun ? 22:05:57 10° NE 22:08:38 17° E 22:11:17 10° SE visible
12 Jun ? 23:40:30 10° NNW 23:43:13 18° WNW 23:45:58 10° WSW visible
13 Jun ? 22:03:25 10° ENE 22:05:53 16° E 22:08:21 10° SE visible
13 Jun ? 23:37:37 10° NNW 23:40:31 20° WNW 23:43:25 10° WSW visible
14 Jun ? 22:00:55 10° ENE 22:03:08 14° E 22:05:21 10° SE visible
14 Jun ? 23:34:43 10° NNW 23:37:46 21° WNW 23:40:50 10° SW visible
15 Jun ? 21:58:25 10° ENE 22:00:22 13° E 22:02:16 10° SE visible
15 Jun ? 23:31:49 10° NNW 23:35:00 23° WNW 23:38:11 10° SW visible
16 Jun ? 21:56:00 10° ENE 21:57:33 12° E 21:59:07 10° ESE visible
16 Jun ? 23:28:56 10° NNW 23:32:14 25° WNW 23:35:33 10° SW visible
17 Jun ? 21:53:43 10° E 21:54:45 11° E 21:55:46 10° ESE visible
17 Jun ? 23:26:01 10° NNW 23:29:26 28° WNW 23:32:51 10° SW visible
18 Jun ? 23:23:05 10° NNW 23:26:37 30° WNW 23:30:07 10° SW visible
